View from above orbital plane
|
View from above satellite
|
Ground track
|
The orbit data is extracted from the following two-line orbital elements,
1 43803U 18099AX 22176.88915055 .00001397 00000-0 12583-3 0 9996
2 43803 97.6201 243.7012 0013242 235.6146 124.3824 14.97122434194334
Epoch (UTC): | 25 June 2022 21:20:22 |
Eccentricity: | 0.0013242 |
inclination: | 97.6201° |
perigee height: | 566 km |
apogee height: | 585 km |
right ascension of ascending node: | 243.7012° |
argument of perigee: | 235.6146° |
revolutions per day: | 14.97122434 |
mean anomaly at epoch: | 124.3824° |
orbit number at epoch: | 19433 |
The dashed part of the orbit path shows where the satellite is in the earth's shadow,
|
|